TimeMDT,TemperatureF,Dew PointF,Humidity,Sea Level PressureIn,VisibilityMPH,Wind Direction,Wind SpeedMPH,Gust SpeedMPH,PrecipitationIn,Events,Conditions,WindDirDegrees,DateUTC
12:15 AM,59.0,32.0,36,29.91,10.0,North,4.6,-,N/A,,Overcast,350,2013-05-16 06:15:00
12:35 AM,59.0,32.0,36,29.91,10.0,NW,6.9,-,N/A,,Mostly Cloudy,320,2013-05-16 06:35:00
12:55 AM,57.2,33.8,41,29.92,10.0,NW,5.8,-,N/A,,Mostly Cloudy,310,2013-05-16 06:55:00
1:15 AM,59.0,32.0,36,29.91,10.0,WNW,4.6,-,N/A,,Scattered Clouds,300,2013-05-16 07:15:00
1:35 AM,59.0,32.0,36,29.92,10.0,North,6.9,-,N/A,,Mostly Cloudy,360,2013-05-16 07:35:00
1:55 AM,57.2,33.8,41,29.91,10.0,NW,5.8,-,N/A,,Mostly Cloudy,310,2013-05-16 07:55:00
2:15 AM,57.2,32.0,38,29.91,10.0,NNW,6.9,-,N/A,,Scattered Clouds,330,2013-05-16 08:15:00
2:35 AM,55.4,33.8,44,29.91,10.0,NNW,4.6,-,N/A,,Clear,340,2013-05-16 08:35:00
2:55 AM,55.4,33.8,44,29.91,10.0,Calm,Calm,-,N/A,,Mostly Cloudy,0,2013-05-16 08:55:00
3:15 AM,55.4,33.8,44,29.91,10.0,Calm,Calm,-,N/A,,Overcast,0,2013-05-16 09:15:00
4:15 AM,51.8,39.2,62,29.90,10.0,Calm,Calm,-,N/A,,Mostly Cloudy,0,2013-05-16 10:15:00
4:35 AM,51.8,35.6,54,29.90,10.0,WNW,4.6,-,N/A,,Mostly Cloudy,290,2013-05-16 10:35:00
4:55 AM,51.8,37.4,58,29.90,10.0,Calm,Calm,-,N/A,,Mostly Cloudy,0,2013-05-16 10:55:00
5:15 AM,51.8,35.6,54,29.90,10.0,Calm,Calm,-,N/A,,Mostly Cloudy,0,2013-05-16 11:15:00
5:35 AM,51.8,37.4,58,29.90,10.0,Calm,Calm,-,N/A,,Mostly Cloudy,0,2013-05-16 11:35:00
5:55 AM,51.8,37.4,58,29.90,10.0,NW,3.5,-,N/A,,Scattered Clouds,320,2013-05-16 11:55:00
6:15 AM,50.0,37.4,62,29.91,10.0,NNW,6.9,-,N/A,,Scattered Clouds,340,2013-05-16 12:15:00
6:35 AM,50.0,35.6,58,29.91,10.0,NNW,5.8,-,N/A,,Mostly Cloudy,330,2013-05-16 12:35:00
6:47 AM,51.8,37.4,58,29.92,10.0,WNW,6.9,-,N/A,,Mostly Cloudy,290,2013-05-16 12:47:00
6:55 AM,50.0,37.4,62,29.91,10.0,NW,6.9,-,N/A,,Overcast,310,2013-05-16 12:55:00
7:47 AM,51.8,37.4,58,29.92,10.0,NW,6.9,-,N/A,,Mostly Cloudy,310,2013-05-16 13:47:00
8:47 AM,53.6,37.4,54,29.92,10.0,NW,6.9,-,N/A,,Mostly Cloudy,310,2013-05-16 14:47:00
9:47 AM,57.2,41.0,55,29.93,10.0,ESE,6.9,-,N/A,,Scattered Clouds,110,2013-05-16 15:47:00
10:47 AM,60.8,41.0,48,29.91,10.0,ESE,13.8,-,N/A,,Overcast,120,2013-05-16 16:47:00
11:47 AM,62.6,37.4,39,29.91,10.0,South,6.9,-,N/A,,Overcast,190,2013-05-16 17:47:00
1:47 PM,60.8,37.4,42,29.91,10.0,SSW,10.4,18.4,N/A,,Overcast,210,2013-05-16 19:47:00
2:47 PM,60.8,39.2,45,29.91,10.0,WSW,6.9,-,N/A,,Overcast,240,2013-05-16 20:47:00
3:47 PM,60.8,39.2,45,29.91,10.0,South,5.8,-,N/A,,Overcast,190,2013-05-16 21:47:00
4:47 PM,57.2,39.2,51,29.91,10.0,SW,5.8,-,N/A,,Overcast,230,2013-05-16 22:47:00
5:50 PM,57.2,39.2,51,29.91,10.0,NNW,4.6,-,N/A,,Overcast,340,2013-05-16 23:50:00
6:55 PM,57.2,42.8,59,29.90,10.0,SE,8.1,-,N/A,,Overcast,130,2013-05-17 00:55:00
7:47 PM,55.4,42.8,63,29.89,10.0,East,8.1,-,N/A,,Overcast,100,2013-05-17 01:47:00
8:50 PM,53.6,42.8,67,29.89,10.0,ESE,9.2,-,N/A,,Mostly Cloudy,110,2013-05-17 02:50:00
9:47 PM,50.0,44.6,82,29.91,10.0,SSE,4.6,-,N/A,,Scattered Clouds,150,2013-05-17 03:47:00
10:47 PM,51.8,44.6,76,29.91,10.0,SE,4.6,-,N/A,,Overcast,140,2013-05-17 04:47:00
11:15 PM,50.0,42.8,76,29.91,10.0,SE,3.5,-,N/A,,Overcast,130,2013-05-17 05:15:00
11:35 PM,50.0,42.8,76,29.91,10.0,SE,4.6,-,N/A,,Overcast,140,2013-05-17 05:35:00
11:55 PM,50.0,42.8,76,29.90,10.0,SE,3.5,-,N/A,,Overcast,140,2013-05-17 05:55:00